Weather reports worldwide

Advertisment
Montauban, France (7540): temperature & dewpoint: 09.12.2018 07:00:00 - 15.12.2018 07:00:00 (CET)Montauban, France (7540): temperature 5cm: 09.12.2018 07:00:00 - 15.12.2018 07:00:00 (CET)Montauban, France (7540): temperature -20cm & temperature -100cm: 09.12.2018 07:00:00 - 15.12.2018 07:00:00 (CET)Montauban, France (7540): wind speed & gusts: 09.12.2018 07:00:00 - 15.12.2018 07:00:00 (CET)Montauban, France (7540): wind direction: 09.12.2018 07:00:00 - 15.12.2018 07:00:00 (CET)Montauban, France (7540): reduced air pressure: 09.12.2018 07:00:00 - 15.12.2018 07:00:00 (CET)Montauban, France (7540): visibility: 09.12.2018 07:00:00 - 15.12.2018 07:00:00 (CET)Montauban, France (7540): sunshine duration: 09.12.2018 07:00:00 - 15.12.2018 07:00:00 (CET)Montauban, France (7540): precipitation: 09.12.2018 07:00:00 - 15.12.2018 07:00:00 (CET)
Date & Time tt [°C] td [°C] tt 5cm [°C] tt -20cm [°C] tt -100cm [°C] ff [km/h] ff [kn] fx [km/h] fx [kn] dd ppp [hPa] vv [km] sd [min] rr [mm]
15.12.2018 07:00:00 - - - - - - - - - - - - - -
15.12.2018 06:00:00 0,2 -1,1 -1,1 8,8 12,7 0 0 6 4 N 1023,5 13 0 0,0
15.12.2018 05:00:00 0,7 -0,9 0,0 8,8 12,7 4 2 8 5 E 1023,7 13 0 0,0
15.12.2018 04:00:00 0,8 -1,0 0,8 8,9 12,7 0 0 9 5 N 1024,2 14 0 0,0
15.12.2018 03:00:00 0,8 -0,7 0,9 9,0 12,7 5 3 8 5 ESE 1024,0 12 0 0,0
15.12.2018 02:00:00 0,9 -0,7 0,8 9,0 12,7 4 2 8 4 E 1024,1 13 0 0,0
15.12.2018 01:00:00 1,0 -0,6 0,7 9,1 12,7 4 2 7 4 NNE 1024,6 12 0 0,0
15.12.2018 00:00:00 0,9 -0,4 -0,4 9,2 12,7 4 2 6 4 NW 1024,8 10 0 0,0
14.12.2018 23:00:00 1,3 -0,3 0,0 9,3 12,7 3 1 7 4 N 1024,1 13 0 0,0
14.12.2018 22:00:00 1,1 -0,4 -0,2 9,4 12,7 2 1 11 6 N 1024,3 12 0 0,0
14.12.2018 21:00:00 2,0 0,4 0,5 9,4 12,7 5 3 10 5 N 1024,1 13 0 0,0
14.12.2018 20:00:00 2,3 0,5 1,2 9,4 12,7 4 2 11 6 N 1023,6 12 0 0,0
14.12.2018 19:00:00 3,4 1,3 1,0 9,4 12,7 4 2 11 6 N 1022,8 12 0 0,0
14.12.2018 18:00:00 4,7 1,4 3,0 9,4 12,7 6 4 24 13 NNW 1022,3 17 0 0,0
14.12.2018 17:00:00 6,7 2,6 5,2 9,4 12,8 10 6 28 15 NW 1021,8 20 17 0,0
14.12.2018 16:00:00 8,5 2,7 8,5 9,4 12,8 16 9 32 17 NW 1020,8 20 60 0,0
14.12.2018 15:00:00 9,0 4,0 9,0 9,3 12,8 18 10 30 16 NW 1019,5 20 41 0,0
14.12.2018 14:00:00 8,5 5,6 8,6 9,3 12,8 14 7 24 13 NW 1019,1 20 0 0,0
14.12.2018 13:00:00 8,2 6,5 8,2 9,3 12,8 13 7 21 12 WNW 1018,9 17 0 0,0
14.12.2018 12:00:00 8,0 6,5 7,8 9,3 12,8 10 5 18 10 WNW 1018,6 15 0 0,0
14.12.2018 11:00:00 7,2 6,1 7,4 9,2 12,8 7 4 16 9 NW 1018,3 14 0 0,0
14.12.2018 10:00:00 6,9 5,8 6,7 9,3 12,8 11 6 20 11 WNW 1017,4 13 0 0,0
14.12.2018 09:00:00 6,6 5,9 6,5 9,3 12,8 9 5 15 8 WNW 1016,6 9 0 0,0
14.12.2018 08:00:00 6,5 5,8 6,1 9,2 12,8 4 2 13 7 WNW 1015,5 11 0 0,0
14.12.2018 07:00:00 6,5 5,9 5,6 9,2 12,8 9 5 16 8 WNW 1015,0 13 0 0,0
14.12.2018 06:00:00 6,4 5,8 5,1 9,3 12,8 6 3 11 6 WNW 1014,2 4,8 0 0,0
14.12.2018 05:00:00 7,1 6,7 6,9 9,3 12,9 10 5 15 8 WNW 1013,8 2,0 0 0,0
14.12.2018 04:00:00 7,0 6,4 6,9 9,2 12,9 7 4 12 7 WNW 1013,7 3,9 0 0,2
14.12.2018 03:00:00 6,9 6,3 6,8 9,2 12,9 8 4 13 7 WNW 1013,3 2,5 0 0,2
14.12.2018 02:00:00 6,9 6,3 6,8 9,2 12,9 5 3 9 5 WNW 1012,7 3,9 0 0,4
14.12.2018 01:00:00 7,0 6,4 6,9 9,2 12,9 2 1 6 3 WNW 1012,0 2,7 0 0,2
14.12.2018 00:00:00 7,0 6,4 6,8 9,2 12,9 3 2 5 3 WNW 1011,8 2,2 0 0,4
13.12.2018 23:00:00 6,9 6,3 6,5 9,2 12,9 0 0 3 2 N 1011,2 2,5 0 0,4
13.12.2018 22:00:00 6,9 6,3 6,5 9,2 12,9 0 0 2 1 N 1010,7 2,5 0 0,6
13.12.2018 21:00:00 7,1 6,4 6,9 9,2 12,9 2 1 4 2 NNW 1010,2 4,0 0 0,6
13.12.2018 20:00:00 7,1 6,4 7,0 9,2 12,9 2 1 3 2 WNW 1009,4 2,3 0 0,8
13.12.2018 19:00:00 7,1 6,4 6,9 9,1 12,9 0 0 5 3 N 1008,5 4,3 0 0,6
13.12.2018 18:00:00 7,1 6,4 6,8 9,1 12,9 3 1 4 2 ENE 1007,8 6 0 0,7
13.12.2018 17:00:00 7,0 6,1 6,9 9,1 13,0 0 0 3 2 N 1007,2 7 0 0,4
13.12.2018 16:00:00 6,9 6,0 6,7 9,1 13,0 0 0 10 5 N 1006,8 8 0 1,0
13.12.2018 15:00:00 6,7 5,8 6,5 9,0 13,0 4 2 12 6 SSE 1006,7 8 0 1,4
13.12.2018 14:00:00 6,5 5,4 6,4 9,0 13,0 6 4 11 6 SSE 1007,0 6 0 2,2
13.12.2018 13:00:00 6,7 5,3 6,6 9,0 13,0 6 3 16 9 SSE 1007,1 8 0 0,8
13.12.2018 12:00:00 7,3 4,9 7,3 9,0 13,0 8 5 14 8 S 1007,3 19 0 0,0
13.12.2018 11:00:00 6,6 4,4 7,2 9,0 13,0 4 2 10 5 WSW 1007,9 20 0 0,0
13.12.2018 10:00:00 6,2 4,4 5,9 9,0 13,1 3 2 8 4 E 1007,5 20 3 0,0
13.12.2018 09:00:00 4,6 4,0 2,2 9,0 13,0 2 1 4 2 ESE 1007,8 17 14 0,0
13.12.2018 08:00:00 4,0 3,3 2,0 9,1 13,0 3 1 6 3 ESE 1008,1 9 0 0,0
13.12.2018 07:00:00 4,8 3,9 3,9 9,1 13,1 0 0 6 3 N 1008,5 17 0 0,0
13.12.2018 06:00:00 5,0 4,1 4,6 9,1 13,1 0 0 5 3 N 1008,9 15 0 0,0
13.12.2018 05:00:00 5,1 4,2 4,6 9,1 13,1 5 3 15 8 E 1009,8 17 0 0,0
13.12.2018 04:00:00 4,7 4,0 4,4 9,2 13,1 6 4 11 6 E 1010,7 8 0 0,0
13.12.2018 03:00:00 4,9 4,2 4,2 9,2 13,1 4 2 7 4 ENE 1012,3 8 0 0,0
13.12.2018 02:00:00 4,8 4,2 3,9 9,2 13,1 4 2 8 5 E 1012,5 6 0 0,0
13.12.2018 01:00:00 5,2 4,6 4,4 9,2 13,1 5 3 11 6 E 1013,6 4,9 0 0,0
13.12.2018 00:00:00 5,2 4,6 2,8 9,2 13,2 8 4 13 7 SSE 1014,9 4,8 0 0,0
12.12.2018 23:00:00 5,4 4,5 4,0 9,2 13,2 5 3 10 6 ESE 1015,4 7 0 0,0
12.12.2018 22:00:00 6,5 5,6 5,8 9,2 13,2 4 2 8 4 SE 1016,1 8 0 0,0
12.12.2018 21:00:00 6,6 5,7 6,1 9,1 13,2 5 3 11 6 SSE 1017,0 7 0 0,0
12.12.2018 20:00:00 6,4 5,7 6,1 9,1 13,2 5 3 9 5 E 1017,3 3,9 0 0,0
12.12.2018 19:00:00 6,5 5,8 6,4 9,1 13,2 3 2 9 5 E 1017,6 3,5 0 0,0
12.12.2018 18:00:00 6,6 5,9 6,6 9,0 13,2 6 4 14 8 ENE 1018,3 3,2 0 0,0
12.12.2018 17:00:00 6,9 6,0 6,9 8,9 13,2 6 3 14 8 ESE 1018,2 4,7 0 0,0
12.12.2018 16:00:00 6,8 5,9 7,4 8,9 13,2 5 3 10 6 E 1018,8 5 0 0,0
12.12.2018 15:00:00 6,5 5,8 7,1 8,8 13,3 2 1 6 3 S 1019,0 3,1 0 0,0
12.12.2018 14:00:00 5,8 5,1 6,7 8,8 13,3 3 2 8 5 SW 1019,9 2,0 0 0,0
12.12.2018 13:00:00 5,1 4,4 5,2 8,9 13,3 5 3 9 5 SSE 1020,8 4,3 0 0,0
12.12.2018 12:00:00 4,0 3,4 3,7 8,9 13,3 3 2 7 4 SSW 1021,2 9 0 0,2
12.12.2018 11:00:00 2,6 2,2 2,4 9,0 13,3 0 0 5 3 N 1021,4 4,7 0 0,6
12.12.2018 10:00:00 1,4 1,0 0,0 9,0 13,3 2 1 8 4 NE 1021,3 10 11 0,0
12.12.2018 09:00:00 -0,1 -0,5 -2,8 9,1 13,3 2 1 10 5 ESE 1021,5 6 15 0,0
12.12.2018 08:00:00 -0,8 -1,2 -2,9 9,2 13,3 0 0 7 4 N 1021,7 8 0 0,0
12.12.2018 07:00:00 -0,1 -0,5 -1,8 9,2 13,3 2 1 8 4 NE 1021,5 8 0 0,0
12.12.2018 06:00:00 0,1 -0,3 -1,4 9,4 13,3 0 0 8 5 N 1021,8 4,8 0 0,0
12.12.2018 05:00:00 0,4 0,0 -1,3 9,4 13,3 2 1 10 5 ENE 1021,8 3,4 0 0,0
12.12.2018 04:00:00 0,6 0,0 -0,5 9,5 13,3 2 1 5 3 E 1022,2 4,7 0 0,0
12.12.2018 03:00:00 1,0 0,6 -0,8 9,6 13,3 3 2 5 3 NW 1022,4 7 0 0,0
12.12.2018 02:00:00 0,5 -0,1 -1,6 9,7 13,3 4 2 5 3 SE 1021,8 7 0 0,0
12.12.2018 01:00:00 0,4 -0,2 -1,6 9,8 13,4 0 0 4 2 N 1022,3 6 0 0,0
12.12.2018 00:00:00 0,6 0,0 -1,6 9,9 13,4 2 1 4 2 SSW 1021,9 6 0 0,0
11.12.2018 23:00:00 1,6 0,9 -1,2 9,9 13,4 0 0 4 2 N 1021,7 7 0 0,0
11.12.2018 22:00:00 1,4 0,5 -1,0 10,0 13,4 0 0 3 2 N 1021,8 8 0 0,0
11.12.2018 21:00:00 1,8 0,8 -0,7 10,0 13,4 0 0 4 2 N 1021,7 7 0 0,0
11.12.2018 20:00:00 2,4 1,2 -0,1 10,0 13,4 0 0 4 2 N 1021,6 9 0 0,0
11.12.2018 19:00:00 3,3 1,8 0,7 10,0 13,4 2 1 4 2 S 1021,6 10 0 0,0
11.12.2018 18:00:00 5,4 2,9 1,4 10,0 13,4 2 1 5 3 W 1021,4 12 0 0,0
11.12.2018 17:00:00 8,0 2,4 5,7 9,9 13,4 2 1 5 3 WSW 1021,3 20 36 0,0
11.12.2018 16:00:00 9,2 2,3 10,1 9,8 13,4 6 3 10 6 ENE 1021,4 20 51 0,0
11.12.2018 15:00:00 10,1 3,6 13,4 9,8 13,4 2 1 8 5 S 1021,7 19 60 0,0
11.12.2018 14:00:00 8,5 3,9 12,8 9,7 13,4 3 2 6 4 WNW 1022,8 18 60 0,0
11.12.2018 13:00:00 6,8 4,3 9,5 9,8 13,4 3 1 8 5 E 1023,9 19 60 0,0
11.12.2018 12:00:00 3,9 3,5 4,5 9,8 13,4 2 1 6 4 NNE 1024,9 13 26 0,0
11.12.2018 11:00:00 2,2 1,9 2,0 9,9 13,4 2 1 5 3 SSW 1025,7 0,5 6 0,0
11.12.2018 10:00:00 0,6 0,3 -0,5 10,0 13,4 0 0 5 3 N 1025,7 1,8 12 0,0
11.12.2018 09:00:00 -0,7 -1,0 -1,2 10,1 13,4 2 1 4 2 S 1025,9 0,4 6 0,0
11.12.2018 08:00:00 -0,2 -0,5 -2,7 10,3 13,4 0 0 3 2 N 1026,0 3,9 0 0,0
11.12.2018 07:00:00 -0,3 -0,6 -2,5 10,4 13,4 0 0 2 1 N 1026,2 7 0 0,0
11.12.2018 06:00:00 -0,3 -0,6 -2,1 10,5 13,4 0 0 3 2 N 1027,1 2,7 0 0,0
11.12.2018 05:00:00 0,1 -0,2 -1,5 10,6 13,4 0 0 4 2 N 1027,5 1,1 0 0,0
11.12.2018 04:00:00 0,4 0,0 -0,9 10,7 13,4 3 2 8 5 E 1027,9 1,1 0 0,0
11.12.2018 03:00:00 1,1 0,7 -1,0 10,8 13,4 0 0 4 2 N 1028,3 6 0 0,0
11.12.2018 02:00:00 1,7 1,3 -0,9 10,9 13,4 4 2 8 4 E 1028,7 4,3 0 0,0
11.12.2018 01:00:00 1,5 0,9 -0,8 11,0 13,4 2 1 4 2 ENE 1029,5 6 0 0,0
11.12.2018 00:00:00 1,9 1,3 -0,6 11,1 13,4 0 0 4 2 N 1029,8 4,2 0 0,0
10.12.2018 23:00:00 3,2 2,6 0,4 11,2 13,4 0 0 5 3 N 1030,1 7 0 0,0
10.12.2018 22:00:00 3,2 2,5 0,4 11,3 13,5 3 1 5 3 S 1030,6 6 0 0,0
10.12.2018 21:00:00 3,9 3,0 1,2 11,3 13,4 3 1 4 2 S 1030,9 7 0 0,0
10.12.2018 20:00:00 4,7 3,5 1,9 11,4 13,4 0 0 5 3 N 1031,3 9 0 0,0
10.12.2018 19:00:00 6,5 4,2 3,0 11,4 13,4 4 2 7 4 NW 1030,7 12 0 0,0
10.12.2018 18:00:00 8,7 5,1 5,8 11,3 13,4 5 3 9 5 NNW 1030,8 16 0 0,0
10.12.2018 17:00:00 9,8 5,6 8,4 11,3 13,4 7 4 13 7 NW 1031,1 18 3 0,0
10.12.2018 16:00:00 11,0 5,7 10,4 11,2 13,4 8 4 13 7 NW 1031,1 19 2 0,0
10.12.2018 15:00:00 10,8 6,2 10,6 11,1 13,4 9 5 22 12 NNW 1031,3 18 18 0,0
10.12.2018 14:00:00 11,5 7,0 13,0 11,1 13,4 14 7 23 13 WNW 1031,9 18 51 0,0
10.12.2018 13:00:00 10,9 7,9 11,3 11,1 13,5 9 5 16 9 WNW 1032,6 13 42 0,0
10.12.2018 12:00:00 9,7 7,6 10,3 11,1 13,4 10 6 16 9 NW 1033,3 13 3 0,0
10.12.2018 11:00:00 9,4 7,8 9,1 11,1 13,4 10 5 16 9 WNW 1033,8 13 0 0,0
10.12.2018 10:00:00 8,4 7,3 7,8 11,2 13,4 9 5 13 7 WNW 1033,8 12 0 0,0
10.12.2018 09:00:00 7,8 7,0 6,7 11,2 13,4 6 3 11 6 WNW 1033,4 10 0 0,0
10.12.2018 08:00:00 8,1 7,3 7,5 11,3 13,4 9 5 14 7 WNW 1033,0 9 0 0,0
10.12.2018 07:00:00 7,7 6,9 7,2 11,3 13,4 6 3 13 7 WNW 1032,8 8 0 0,0
10.12.2018 06:00:00 7,7 6,9 6,1 11,4 13,5 8 5 15 8 WNW 1032,7 9 0 0,0
10.12.2018 05:00:00 7,7 6,8 6,5 11,5 13,5 10 6 17 9 WNW 1032,7 9 0 0,0
10.12.2018 04:00:00 8,7 7,6 7,7 11,5 13,5 11 6 29 16 WNW 1033,0 12 0 0,0
10.12.2018 03:00:00 8,6 7,5 7,2 11,5 13,5 9 5 18 10 WNW 1033,0 12 0 0,0
10.12.2018 02:00:00 8,2 7,0 7,2 11,6 13,5 10 5 23 12 WNW 1032,9 14 0 0,0
10.12.2018 01:00:00 9,1 7,4 7,7 11,6 13,5 15 8 22 12 WNW 1032,7 16 0 0,0
10.12.2018 00:00:00 9,3 7,2 8,3 11,6 13,5 14 8 24 13 W 1032,7 14 0 0,0
09.12.2018 23:00:00 9,9 7,7 9,1 11,7 13,5 13 7 27 14 W 1032,1 13 0 0,0
09.12.2018 22:00:00 10,1 7,3 9,2 11,7 13,5 18 10 35 19 WNW 1031,8 13 0 0,0
09.12.2018 21:00:00 10,7 7,6 9,4 11,7 13,5 18 10 34 18 W 1031,1 13 0 0,0
09.12.2018 20:00:00 10,8 7,1 9,8 11,7 13,4 22 12 37 20 WNW 1030,4 14 0 0,0
09.12.2018 19:00:00 10,5 7,7 8,9 11,7 13,5 16 9 26 14 W 1029,6 11 0 0,0
09.12.2018 18:00:00 10,6 7,3 9,4 11,7 13,5 17 9 36 19 WNW 1028,7 14 0 0,0
09.12.2018 17:00:00 11,2 8,4 9,8 11,7 13,5 22 12 41 22 WNW 1028,1 6 0 0,8
09.12.2018 16:00:00 12,6 8,1 12,3 11,7 13,5 18 10 42 23 W 1027,3 12 0 0,0
09.12.2018 15:00:00 12,7 8,4 12,6 11,6 13,5 18 10 42 23 WNW 1026,5 12 0 0,0
09.12.2018 14:00:00 12,5 9,1 12,3 11,6 13,5 24 13 55 30 WNW 1026,6 13 0 0,0
09.12.2018 13:00:00 12,3 9,3 10,6 11,6 13,5 23 12 47 25 W 1026,4 18 0 0,2
09.12.2018 12:00:00 11,7 9,3 10,6 11,6 13,5 31 17 62 34 WNW 1026,4 6 0 0,8
09.12.2018 11:00:00 13,2 8,9 12,1 11,6 13,5 24 13 44 24 W 1026,3 12 0 0,0
09.12.2018 10:00:00 12,9 9,3 12,4 11,5 13,5 26 14 48 26 W 1026,1 14 0 0,0
09.12.2018 09:00:00 12,8 9,2 11,9 11,5 13,5 22 12 39 21 W 1026,0 17 0 0,0
09.12.2018 08:00:00 12,4 9,6 11,7 11,5 13,5 18 10 42 23 W 1025,9 19 0 0,0
09.12.2018 07:00:00 12,4 9,6 10,9 11,5 13,5 24 13 40 21 W 1025,7 19 0 0,2

tt = temperature
td = dewpoint
tt 5cm = temperature 5cm
tt -20cm = temperature -20cm
tt -100cm = temperature -100cm
ff = wind speed
fx = gusts
dd = wind direction
ppp = reduced air pressure
vv = visibility
sd = sunshine duration
rr = precipitation

Next stations